RYR46RU LFOB-EBCI

Flight info

Callsign RYR46RU
Flight time 0h 27m
Altitude 20000
Route NURMO UN874 CMB UZ373 ARVOL
Aircraft B738/M-SDE2E3FGHIRWXY/LB1

Departure

Time 2026-04-27 16:25
Airport Beauvais-Tillé airport (LFOB)

Arrival

Time 2026-04-27 16:52
Airport Brussels South Charleroi Airport (EBCI)
Time Latitude Longitude Altitude Speed Heading
2026-04-27 16:02 49.45823 2.11335 346 ft 0 kts 311°
2026-04-27 16:14 49.45816 2.11348 356 ft 3 kts 315°
2026-04-27 16:15 49.45784 2.11383 352 ft 3 kts 343°
2026-04-27 16:15 49.45755 2.11381 345 ft 1 kts 41°
2026-04-27 16:16 49.45755 2.11380 345 ft 2 kts 41°
2026-04-27 16:18 49.45793 2.11442 346 ft 9 kts 61°
2026-04-27 16:18 49.45735 2.11604 353 ft 9 kts 137°
2026-04-27 16:19 49.45679 2.11601 348 ft 9 kts 218°
2026-04-27 16:19 49.45634 2.11542 350 ft 9 kts 221°
2026-04-27 16:20 49.45448 2.11318 338 ft 13 kts 179°
2026-04-27 16:20 49.45377 2.11433 334 ft 20 kts 123°
2026-04-27 16:20 49.45179 2.11887 336 ft 26 kts 124°
2026-04-27 16:21 49.45083 2.12107 332 ft 24 kts 124°
2026-04-27 16:21 49.44982 2.12802 320 ft 22 kts 124°
2026-04-27 16:22 49.44899 2.12993 315 ft 21 kts 123°
2026-04-27 16:22 49.44736 2.13298 307 ft 15 kts 170°
2026-04-27 16:22 49.44655 2.13225 307 ft 14 kts 249°
2026-04-27 16:23 49.44662 2.13082 310 ft 11 kts 293°
2026-04-27 16:23 49.44674 2.13049 310 ft 0 kts 302°
2026-04-27 16:24 49.44678 2.13040 311 ft 8 kts 302°
2026-04-27 16:24 49.45283 2.11654 334 ft 143 kts 303°
2026-04-27 16:25 49.46536 2.08804 1521 ft 165 kts 308°
2026-04-27 16:25 49.48500 2.07837 2552 ft 161 kts 28°
2026-04-27 16:26 49.49635 2.10738 3235 ft 165 kts 68°
2026-04-27 16:26 49.50479 2.14350 3843 ft 206 kts 69°
2026-04-27 16:27 49.51546 2.18983 4552 ft 252 kts 70°
2026-04-27 16:27 49.53390 2.27105 6914 ft 276 kts 70°
2026-04-27 16:28 49.54911 2.32615 8469 ft 286 kts 49°
2026-04-27 16:28 49.57729 2.37039 9993 ft 292 kts 43°
2026-04-27 16:29 49.62409 2.44146 11066 ft 351 kts 43°
2026-04-27 16:30 49.66026 2.49715 11913 ft 377 kts 44°
2026-04-27 16:30 49.69759 2.55498 13408 ft 383 kts 44°
2026-04-27 16:31 49.75504 2.64427 15389 ft 395 kts 44°
2026-04-27 16:31 49.79415 2.70520 16602 ft 403 kts 44°
2026-04-27 16:32 49.83497 2.76590 17826 ft 409 kts 34°
2026-04-27 16:32 49.85873 2.78900 18428 ft 410 kts 28°
2026-04-27 16:33 49.90818 2.83511 19439 ft 418 kts 30°
2026-04-27 16:33 49.93291 2.85933 19963 ft 422 kts 30°
2026-04-27 16:33 49.95768 2.88394 20486 ft 424 kts 30°
2026-04-27 16:33 49.98265 2.90872 21014 ft 427 kts 30°
2026-04-27 16:34 50.00788 2.93376 21479 ft 431 kts 30°
2026-04-27 16:34 50.03344 2.95902 21545 ft 440 kts 30°
2026-04-27 16:34 50.05924 2.98447 21424 ft 441 kts 30°
2026-04-27 16:34 50.08527 3.01018 21175 ft 445 kts 30°
2026-04-27 16:35 50.11146 3.03611 20917 ft 445 kts 30°
2026-04-27 16:35 50.13752 3.06196 20672 ft 444 kts 30°
2026-04-27 16:35 50.18895 3.11310 20233 ft 425 kts 30°
2026-04-27 16:36 50.21365 3.13772 20196 ft 419 kts 30°
2026-04-27 16:36 50.23819 3.16232 20196 ft 418 kts 31°
2026-04-27 16:36 50.26208 3.18754 20198 ft 420 kts 32°
2026-04-27 16:36 50.28598 3.21351 20193 ft 415 kts 32°
2026-04-27 16:37 50.30944 3.23924 20126 ft 400 kts 32°
2026-04-27 16:37 50.33184 3.26376 19801 ft 394 kts 32°
2026-04-27 16:37 50.35449 3.28843 18963 ft 402 kts 32°
2026-04-27 16:37 50.37769 3.31361 18164 ft 407 kts 32°
2026-04-27 16:38 50.40088 3.33880 17571 ft 404 kts 32°
2026-04-27 16:38 50.42385 3.36377 17075 ft 399 kts 32°
2026-04-27 16:38 50.44656 3.38849 16582 ft 395 kts 33°
2026-04-27 16:38 50.46904 3.41296 16049 ft 392 kts 33°
2026-04-27 16:39 50.49140 3.43732 15516 ft 390 kts 33°
2026-04-27 16:39 50.51362 3.46157 15020 ft 387 kts 33°
2026-04-27 16:39 50.53403 3.48890 14509 ft 387 kts 47°
2026-04-27 16:39 50.54949 3.52353 14025 ft 386 kts 61°
2026-04-27 16:40 50.55945 3.56244 13521 ft 383 kts 72°
2026-04-27 16:40 50.56690 3.60202 13025 ft 380 kts 73°
2026-04-27 16:40 50.57421 3.64229 12543 ft 377 kts 73°
2026-04-27 16:40 50.58137 3.68177 12041 ft 374 kts 73°
2026-04-27 16:41 50.58839 3.72009 11822 ft 362 kts 73°
2026-04-27 16:41 50.59523 3.75711 11599 ft 344 kts 73°
2026-04-27 16:41 50.60185 3.79277 11204 ft 334 kts 73°
2026-04-27 16:41 50.60825 3.82718 10965 ft 320 kts 73°
2026-04-27 16:42 50.61440 3.86019 10720 ft 308 kts 73°
2026-04-27 16:42 50.62033 3.89208 10433 ft 299 kts 72°
2026-04-27 16:42 50.62618 3.92297 10128 ft 295 kts 73°
2026-04-27 16:42 50.63192 3.95391 9895 ft 291 kts 73°
2026-04-27 16:43 50.63763 3.98474 9406 ft 296 kts 73°
2026-04-27 16:43 50.64338 4.01587 9045 ft 296 kts 73°
2026-04-27 16:43 50.64913 4.04693 8734 ft 294 kts 73°
2026-04-27 16:43 50.65483 4.07780 8440 ft 293 kts 73°
2026-04-27 16:44 50.65974 4.10439 8174 ft 292 kts 73°
2026-04-27 16:44 50.66538 4.13512 7867 ft 290 kts 73°
2026-04-27 16:44 50.67101 4.16588 7447 ft 294 kts 73°
2026-04-27 16:44 50.67582 4.19730 7110 ft 294 kts 85°
2026-04-27 16:45 50.67288 4.22842 6788 ft 285 kts 114°
2026-04-27 16:45 50.66175 4.25337 6480 ft 275 kts 139°
2026-04-27 16:45 50.64565 4.26824 6182 ft 265 kts 161°
2026-04-27 16:45 50.62778 4.27320 5916 ft 261 kts 180°
2026-04-27 16:46 50.60978 4.27073 5654 ft 259 kts 188°
2026-04-27 16:46 50.59222 4.26619 5353 ft 260 kts 190°
2026-04-27 16:46 50.57442 4.26129 5078 ft 259 kts 190°
2026-04-27 16:46 50.55647 4.25641 4804 ft 258 kts 190°
2026-04-27 16:47 50.53877 4.25171 4512 ft 259 kts 189°
2026-04-27 16:47 50.52120 4.24717 4257 ft 259 kts 189°
2026-04-27 16:47 50.50345 4.24265 4049 ft 258 kts 189°
2026-04-27 16:47 50.48569 4.23816 3785 ft 257 kts 189°
2026-04-27 16:48 50.46813 4.23372 3654 ft 253 kts 189°
2026-04-27 16:48 50.45103 4.22938 3577 ft 244 kts 189°
2026-04-27 16:48 50.43451 4.22937 3407 ft 237 kts 161°
2026-04-27 16:49 50.41410 4.26378 2883 ft 212 kts 101°
2026-04-27 16:49 50.41368 4.28594 2695 ft 199 kts 77°
2026-04-27 16:49 50.41776 4.30624 2436 ft 196 kts 68°
2026-04-27 16:49 50.42291 4.32552 2201 ft 189 kts 64°
2026-04-27 16:50 50.42816 4.34362 1991 ft 175 kts 64°
2026-04-27 16:50 50.43305 4.36049 1784 ft 166 kts 63°
2026-04-27 16:50 50.43771 4.37655 1522 ft 155 kts 64°
2026-04-27 16:50 50.44181 4.39077 1398 ft 133 kts 64°
2026-04-27 16:51 50.44547 4.40344 1200 ft 126 kts 60°
2026-04-27 16:51 50.44919 4.41603 1066 ft 129 kts 64°
2026-04-27 16:51 50.45291 4.42893 851 ft 131 kts 62°
2026-04-27 16:51 50.45671 4.44203 649 ft 131 kts 63°
2026-04-27 16:52 50.46010 4.45368 620 ft 98 kts 65°
2026-04-27 16:52 50.46230 4.46122 615 ft 62 kts 65°
2026-04-27 16:52 50.46367 4.46597 619 ft 32 kts 65°
2026-04-27 16:52 50.46433 4.46823 619 ft 17 kts 64°
2026-04-27 16:53 50.46516 4.46887 618 ft 14 kts 346°
2026-04-27 16:53 50.46602 4.46827 614 ft 13 kts 335°
2026-04-27 16:53 50.46669 4.46790 611 ft 7 kts
2026-04-27 16:53 50.46693 4.46843 615 ft 6 kts 69°
2026-04-27 16:54 50.46710 4.46904 613 ft 6 kts 65°
2026-04-27 16:54 50.46740 4.46921 611 ft 5 kts 338°
2026-04-27 16:54 50.46771 4.46900 623 ft 5 kts 335°
2026-04-27 16:54 50.46801 4.46878 622 ft 4 kts 335°
2026-04-27 16:55 50.46806 4.46874 619 ft 0 kts 335°